ONEWEB-0129

Last updated on Mon Jan 18 2021 00:02:03 GMT+0000 (Coordinated Universal Time)

1 47275U 20100T 21017.58334491 -.01489449 00000-0 -10498+0 0 9998 2 47275 87.4115 29.1025 0011721 162.4335 25.2433 15.08357603 1815

Satellite not in orbit

ONEWEB-0129